User: anonymous   Login
Location: Kapla
(46.2483°N, 15.0094°E)
Time: 10:29:49
(UTC+00:00)
Language:

SME Rocket - Orbit

View from above orbital plane
View from above orbital plane
View from above satellite
View from above satellite

Ground track
Ground track

The orbit data is extracted from the following two-line orbital elements,

1 12889U 81100C   21131.61085160  .00000002  00000-0  16060-4 0  9992
2 12889  99.8644 328.4464 1316777  61.3492 344.1221 12.18065229754412
Epoch (UTC): 11 May 2021 14:39:37
Eccentricity: 0.1316777
inclination: 99.8644°
perigee height: 550 km
apogee height: 2651 km
right ascension of ascending node: 328.4464°
argument of perigee: 61.3492°
revolutions per day: 12.18065229
mean anomaly at epoch: 344.1221°
orbit number at epoch: 75441

The dashed part of the orbit path shows where the satellite is in the earth's shadow,  

DLR